Location: La Trinit�
(48.1620°N, 3.4512°W)
Time: 17:25:52
(UTC+00:00)

Okean 1-7 - Pass Details

Date: 08 May 2021
Orbit: 591 x 617 km, 82.5° (Epoch: 21 June)

Event Time Altitude Azimuth Distance (km) Brightness Sun altitude
Exits shadow 23:30:15 26° 79° (E) 1,189 4.5 -23.9°
Drops below altitude 10° 23:33:26 10° 32° (NNE) 1,940 6.2 -24.0°
Sets 23:35:55 0° 20° (NNE) 2,851 7.4 -24.0°
